Location: Bothwell
(42.3833°S, 147.0000°E)
Time: 03:40:05
(UTC+11:00)

BUGSAT 1 - Pass Details

Date: 27 September 2022
Orbit: 554 x 595 km, 98.1° (Epoch: 29 November)

Event Time Altitude Azimuth Distance (km) Brightness Sun altitude
Rises 19:36:08 0° 185° (S) 2,862 ? -15.8°
Reaches altitude 10° 19:39:04 10° 207° (SSW) 1,942 ? -16.3°
Maximum altitude 19:41:33 15° 243° (WSW) 1,599 ? -16.7°
Drops below altitude 10° 19:44:00 10° 279° (W) 1,911 ? -17.1°
Sets 19:46:52 0° 302° (WNW) 2,791 ? -17.6°
